Weather History for KBOI - July, 2012

Change the Weather History Date:

Saturday, July 28, 2012

  Actual Average Record
Temperature  
Mean Temperature 81 °F 78 °F  
Max Temperature 97 °F 93 °F 106 °F (1934)
Min Temperature 64 °F 62 °F 45 °F (1948)
Degree Days  
Heating Degree Days 0 0  
Month to date heating degree days 0 4  
Since 1 June heating degree days 64 68  
Since 1 July heating degree days 0 4  
Cooling Degree Days 16 13  
Month to date cooling degree days 467 304  
Year to date cooling degree days 666 487  
Since 1 June cooling degree days 607 443  
Growing Degree Days 30 (Base 50)    
Moisture  
Dew Point 44 °F    
Average Humidity 29    
Maximum Humidity 41    
Minimum Humidity 17    
Precipitation  
Precipitation 0.00 in 0.01 in 0.12 in (1984)
Month to date precipitation 0.07 0.30  
Year to date precipitation 8.86 7.23  
Snow  
Snow 0.00 in 0.00 in 0.00 in (2006)
Month to date snowfall 0.0 0.0  
Since 1 July snowfall 0.0 0.0  
Snow Depth 0.00 in    
Sea Level Pressure  
Sea Level Pressure 29.85 in    
Wind  
Wind Speed 6 mph (NW)    
Max Wind Speed 18 mph    
Max Gust Speed 23 mph    
Visibility 10 miles    
Events      
T = Trace of Precipitation, MM = Missing Value Source: NWS Daily Summary

Daily Weather History Graph

Daily Weather History Graph

Search for Another Location

Airport or City:

Trip Planner

Search our weather history database for the weather conditions in past years. The results will help you decide how hot, cold, wet, or windy it might be!

Date:

Astronomy

Jul. 28, 2012 Rise Set
Actual Time 6:30 AM MDT 9:11 PM MDT
Civil Twilight 5:57 AM MDT 9:44 PM MDT
Nautical Twilight 5:16 AM MDT 10:25 PM MDT
Astronomical Twilight 4:28 AM MDT 11:13 PM MDT
Moon 5:22 PM MDT (7/28) 1:52 AM MDT (7/28)
Length of Visible Light 15h 46m
Length of Day
14h 40m
Waxing Gibbous, 76% of the Moon is Illuminated
Jul 28
Waxing Gibbous
Aug 1
Full
Aug 9
Last Quarter
Aug 17
New
Aug 24
First Quarter

Hourly Weather History & Observations

Time (MDT) Temp. Dew Point Humidity Pressure Visibility Wind Dir Wind Speed Gust Speed Precip Events Conditions
12:53 AM 75.9 °F 48.0 °F 37% 29.79 in 10.0 mi WSW 8.1 mph - N/A   Clear
1:53 AM 72.0 °F 46.9 °F 41% 29.82 in 10.0 mi West 3.5 mph - N/A   Clear
2:53 AM 71.1 °F 42.1 °F 35% 29.83 in 10.0 mi West 4.6 mph - N/A   Clear
3:53 AM 68.0 °F 42.1 °F 39% 29.84 in 10.0 mi North 4.6 mph - N/A   Clear
4:53 AM 68.0 °F 41.0 °F 37% 29.86 in 10.0 mi SE 4.6 mph - N/A   Clear
5:53 AM 64.9 °F 39.9 °F 40% 29.88 in 10.0 mi South 3.5 mph - N/A   Clear
6:53 AM 66.9 °F 37.9 °F 34% 29.90 in 9.0 mi Calm Calm - N/A   Clear
7:53 AM 66.9 °F 39.0 °F 36% 29.92 in 8.0 mi SSE 4.6 mph - N/A   Clear
8:53 AM 71.1 °F 39.0 °F 31% 29.93 in 9.0 mi WNW 3.5 mph - N/A   Clear
9:53 AM 73.9 °F 42.1 °F 32% 29.94 in 9.0 mi NW 4.6 mph - N/A   Clear
10:53 AM 79.0 °F 43.0 °F 28% 29.93 in 10.0 mi North 6.9 mph - N/A   Clear
11:53 AM 82.9 °F 44.1 °F 25% 29.92 in 10.0 mi NNW 8.1 mph - N/A   Clear
12:53 PM 86.0 °F 44.1 °F 23% 29.90 in 10.0 mi Variable 6.9 mph - N/A   Clear
1:53 PM 90.0 °F 46.0 °F 22% 29.88 in 10.0 mi WNW 5.8 mph - N/A   Clear
2:53 PM 91.0 °F 46.0 °F 21% 29.86 in 10.0 mi NW 9.2 mph - N/A   Clear
3:53 PM 93.9 °F 46.0 °F 19% 29.84 in 10.0 mi WNW 10.4 mph - N/A   Clear
4:53 PM 95.0 °F 45.0 °F 18% 29.81 in 10.0 mi North 9.2 mph - N/A   Clear
5:53 PM 95.0 °F 44.1 °F 17% 29.81 in 10.0 mi WNW 10.4 mph - N/A   Clear
6:53 PM 93.9 °F 43.0 °F 17% 29.76 in 10.0 mi NNW 15.0 mph 19.6 mph N/A   Clear
7:00 PM 93.2 °F 44.6 °F 19% 29.87 in 10.0 mi NNW 10.4 mph - N/A   Clear
7:53 PM 91.9 °F 45.0 °F 20% 29.78 in 10.0 mi NW 11.5 mph - N/A   Clear
8:53 PM 89.1 °F 45.0 °F 22% 29.80 in 10.0 mi NW 8.1 mph - N/A   Clear
9:53 PM 84.9 °F 46.0 °F 26% 29.81 in 10.0 mi Calm Calm - N/A   Clear
10:53 PM 79.0 °F 48.0 °F 34% 29.83 in 10.0 mi Calm Calm - N/A   Clear
11:53 PM 79.0 °F 48.0 °F 34% 29.83 in 10.0 mi Calm Calm - N/A   Clear